Regional Weather Roundup
Issued by NWS

Home | Current Version | Previous Version | Graphics & Text | Print | Product List | Glossary On
Versions: 1 2 3 4 5 6 7 8 9 10 11 12 13 14 15 16 17 18 19 20 21 22 23 24 25 26 27 28 29 30 31 32 33 34 35 36 37 38 39 40 41 42 43 44 45 46 47 48 49 50
000
ASUS44 KMEG 272310
RWRTN
TENNESSEE HOURLY STATE WEATHER ROUNDUP
NATIONAL WEATHER SERVICE MEMPHIS TN
600 PM CDT WED AUG 27 2014

TNZ002-004-019-021-049-052-054-088>092-280000-
WEST TENNESSEE

CITY           SKY/WX    TMP DP  RH WIND       PRES   REMARKS
MEMPHIS INTL   MOSUNNY   91  62  37 SE7       30.01F HX  91
NWS MEMPHIS      N/A     89 N/A N/A MISG        N/A
JACKSON        SUNNY     88  70  55 S3        30.02F HX  93
DYERSBURG      SUNNY     90  64  43 CALM      30.02F HX  91
UNION CITY     SUNNY     90  75  62 S3        30.00F HX 100
PARIS          SUNNY     84  72  65 W5        30.03F
HUNTINGDON     MOSUNNY   83  72  69 N5        30.02F
LEXINGTON      MOSUNNY   90  68  48 CALM      30.02F HX  93
SAVANNAH       SUNNY     90  68  48 CALM      30.03F HX  93
$$

TNZ008-025-027-028-033-062-065-066-280000-
NORTH MIDDLE TENNESSEE

CITY           SKY/WX    TMP DP  RH WIND       PRES   REMARKS
NASHVILLE      MOSUNNY   89  68  49 SE9       30.03F HX  93
DICKSON        SUNNY     84  73  70 CALM      30.04F HX  91
PORTLAND       MOSUNNY   86  72  62 E3        30.03F HX  92
CLARKSVILLE    MOSUNNY   88  72  58 S3        30.01F HX  94
LEBANON        SUNNY     88  68  51 NE7       30.02F HX  91
SMYRNA         SUNNY     90  70  51 E8        30.03F HX  95
MURFREESBORO   SUNNY     87  66  49 NE6       30.03F
COOKEVILLE     MOSUNNY   86  70  58 E3        30.05F HX  90
LIVINGSTON     SUNNY     82  68  62 NE7       30.07F
GALLATIN       SUNNY     89  72  57 E5        30.04F HX  96
CROSSVILLE     SUNNY     83  61  47 N7        30.10F
$$

TNZ061-075-076-078-094-096-097-280000-
SOUTH MIDDLE TENNESSEE

CITY           SKY/WX    TMP DP  RH WIND       PRES   REMARKS
LEWISBURG      SUNNY     89  65  44 NE5       30.02F HX  90
FAYETTEVILLE   SUNNY     84  66  54 CALM      30.04F
TULLAHOMA      MOSUNNY   86  64  48 NE6       30.06S
WINCHESTER     SUNNY     86  66  51 N3        30.04F
MCMINNVILLE    SUNNY     86  70  58 NE6       30.06S HX  90
COLUMBIA         N/A     90  73  58 W5        30.02S HX  98
SHELBYVILLE    SUNNY     88  68  51 NE7       30.04F HX  91
$$

TNZ017-018-042-046-047-280000-
NORTHEAST TENNESSEE

CITY           SKY/WX    TMP DP  RH WIND       PRES   REMARKS
TRI CITIES     MOSUNNY   83  57  41 N3        30.07F
ELIZABETHTON   CLEAR     81  64  57 NW3       30.07F
$$

TNZ012-013-036-069-073-074-280000-
CENTRAL EAST TENNESSEE

CITY           SKY/WX    TMP DP  RH WIND       PRES   REMARKS
KNOXVILLE      PTSUNNY   83  62  49 E7        30.04S
OAK RIDGE      SUNNY     87  61  41 E5        30.06F
GATLINBURG     CLEAR     84  61  45 N5        30.04F
MORRISTOWN     CLEAR     84  63  48 CALM      30.07F
$$

TNZ083-085-099-280000-
SOUTHEAST TENNESSEE

CITY           SKY/WX    TMP DP  RH WIND       PRES   REMARKS
CHATTANOOGA    MOSUNNY   88  60  38 N8        30.03S
$$

SKY/WX REPORTED AS FAIR MEANS FEW OR NO CLOUDS BELOW
12 THOUSAND FEET.



USA.gov is the U.S. government's official web portal to all federal, state and local government web resources and services.